Location: Poughquag
(41.6090°N, 73.6820°W)
Time: 17:41:13
(UTC-04:00)

Tiros 1 - Visible Passes

Search period start: 13 July 2025 00:00
Search period end: 23 July 2025 00:00
Orbit: 619 x 651 km, 48.4° (Epoch: 13 July)

Date Brightness Start Highest point End Pass type
(mag) Time Alt. Az. Time Alt. Az. Time Alt. Az.
13 Jul 8.5 01:07:28 10° WNW 01:11:55 38° N 01:16:20 10° ENE visible
13 Jul 7.1 02:49:31 10° WNW 02:54:17 85° NNE 02:58:59 10° ESE visible
13 Jul 8.2 04:32:10 10° W 04:35:48 22° SW 04:39:25 10° S visible
13 Jul 7.6 22:04:31 10° WSW 22:09:14 63° NNW 22:13:57 10° ENE visible
13 Jul 8.7 23:47:22 10° WNW 23:51:46 36° N 23:56:08 10° ENE visible
14 Jul 8.0 01:29:47 10° WNW 01:34:24 49° NNE 01:38:59 10° E visible
14 Jul 7.2 03:11:49 10° WNW 03:16:26 53° SW 03:20:59 10° SE visible
14 Jul 9.0 04:57:28 10° SW 04:57:33 10° SW 04:57:37 10° SW visible
14 Jul 8.3 22:27:06 10° W 22:31:38 44° NNW 22:36:12 10° ENE visible
15 Jul 8.6 00:09:53 10° WNW 00:14:18 37° N 00:18:43 10° ENE visible
15 Jul 7.2 01:52:00 10° WNW 01:56:45 74° NNE 01:57:25 62° E visible
15 Jul 9.4 03:34:25 10° W 03:34:36 11° W 03:34:36 11° W visible
15 Jul 7.5 21:06:58 10° WSW 21:11:42 72° NNW 21:16:27 10° ENE visible
15 Jul 8.6 22:49:44 10° WNW 22:54:09 37° N 22:58:34 10° ENE visible
16 Jul 8.1 00:32:15 10° WNW 00:36:49 45° NNE 00:39:00 27° ENE visible
16 Jul 8.6 02:14:15 10° WNW 02:16:18 25° WNW 02:16:18 25° WNW visible
16 Jul 8.2 21:29:28 10° W 21:34:03 48° NNW 21:38:40 10° ENE visible
16 Jul 8.6 23:12:18 10° WNW 23:16:42 36° N 23:21:05 10° ENE visible
17 Jul 7.5 00:54:28 10° WNW 00:58:54 63° N 00:58:54 63° N visible
17 Jul 8.6 21:52:07 10° WNW 21:56:33 38° N 22:00:59 10° ENE visible
17 Jul 8.3 23:34:42 10° WNW 23:39:14 42° NNE 23:41:47 23° ENE visible
18 Jul 8.5 01:16:42 10° WNW 01:19:08 30° WNW 01:19:08 30° WNW visible
18 Jul 8.6 22:14:42 10° WNW 22:19:05 36° N 22:23:28 10° ENE visible
18 Jul 7.6 23:56:57 10° WNW 00:01:39 58° NNE 00:02:12 54° NE visible
19 Jul 9.6 01:39:06 10° WNW 01:39:34 13° WNW 01:39:34 13° WNW visible
19 Jul 8.5 20:54:29 10° W 20:58:56 40° N 21:03:25 10° ENE visible
19 Jul 8.4 22:37:09 10° WNW 22:41:37 40° N 22:45:23 14° ENE visible
20 Jul 7.8 00:19:10 10° WNW 00:22:44 51° WNW 00:22:44 51° WNW visible
20 Jul 8.6 21:17:06 10° WNW 21:21:28 36° N 21:25:51 10° ENE visible
20 Jul 7.8 22:59:25 10° WNW 23:04:05 52° NNE 23:06:00 32° ENE visible
21 Jul 8.9 00:41:30 10° WNW 00:43:23 23° W 00:43:23 23° W visible
21 Jul 8.4 21:39:35 10° WNW 21:44:01 38° N 21:48:27 10° ENE visible
21 Jul 7.1 23:21:38 10° WNW 23:26:24 81° NNE 23:26:41 76° ENE visible
22 Jul 8.0 22:01:54 10° WNW 22:06:30 47° NNE 22:10:02 16° E visible
22 Jul 7.9 23:43:55 10° WNW 23:47:25 44° W 23:47:25 44° W visible
